Anoka County, MN

7:33 PM CDT on June 28, 2017 (GMT -0500)
Anoka County / Blaine Airport

Weather History for KANE - September, 2013

Change the Weather History Date:

Sunday, September 8, 2013

  Actual Average Record
Temperature  
Mean Temperature 70 °F -  
Max Temperature 75 °F 74 °F 91 °F (2002)
Min Temperature 64 °F 54 °F 42 °F (1998)
Cooling Degree Days 4    
Growing Degree Days 20 (Base 50)    
Moisture  
Dew Point 59 °F    
Average Humidity 72    
Maximum Humidity 83    
Minimum Humidity 61    
Precipitation  
Precipitation 0.00 in - - ()
Sea Level Pressure  
Sea Level Pressure 30.00 in    
Wind  
Wind Speed 8 mph (ENE)    
Max Wind Speed 14 mph    
Max Gust Speed 20 mph    
Visibility 10 miles    
Events Rain    
Averages and records for this station are not official NWS values.
T = Trace of Precipitation, MM = Missing Value Source: NWS Daily Summary

Daily Weather History Graph

Daily Weather History Graph

Search for Another Location

Airport or City:

Trip Planner

Search our weather history database for the weather conditions in past years. The results will help you decide how hot, cold, wet, or windy it might be!

Date:

Astronomy

Sep. 08, 2013 Rise Set
Actual Time 6:43 AM CDT 7:36 PM CDT
Civil Twilight 6:13 AM CDT 8:06 PM CDT
Nautical Twilight 5:37 AM CDT 8:41 PM CDT
Astronomical Twilight 5:00 AM CDT 9:19 PM CDT
Moon 10:13 AM CDT (9/8) 8:59 PM CDT (9/8)
Length of Visible Light 13h 52m
Length of Day
12h 53m
Waxing Crescent, 11% of the Moon is Illuminated
Sep 8
Waxing Crescent
Sep 12
First Quarter
Sep 19
Full
Sep 26
Last Quarter
Oct 4
New

Hourly Weather History & Observations

Time (CDT) Temp. Dew Point Humidity Pressure Visibility Wind Dir Wind Speed Gust Speed Precip Events Conditions
12:14 AM 69.8 °F 60.8 °F 73% 30.04 in 10.0 mi NE 5.8 mph - N/A   Clear
12:33 AM 69.8 °F 60.8 °F 73% 30.05 in 10.0 mi NNE 5.8 mph - N/A   Clear
12:54 AM 68.0 °F 60.8 °F 78% 30.06 in 10.0 mi NE 5.8 mph - N/A   Clear
1:14 AM 68.0 °F 60.8 °F 78% 30.06 in 10.0 mi NE 6.9 mph - N/A   Clear
1:34 AM 68.0 °F 60.8 °F 78% 30.06 in 10.0 mi ENE 6.9 mph - N/A   Clear
1:54 AM 66.2 °F 60.8 °F 83% 30.06 in 10.0 mi ENE 11.5 mph - N/A   Clear
2:13 AM 66.2 °F 60.8 °F 83% 30.06 in 10.0 mi ENE 6.9 mph - N/A   Clear
2:34 AM 66.2 °F 60.8 °F 83% 30.05 in 10.0 mi ENE 6.9 mph - N/A   Clear
2:54 AM 66.2 °F 60.8 °F 83% 30.05 in 10.0 mi ENE 9.2 mph - N/A   Clear
3:13 AM 66.2 °F 57.2 °F 73% 30.05 in 10.0 mi ENE 9.2 mph - N/A   Clear
3:34 AM 66.2 °F 57.2 °F 73% 30.05 in 10.0 mi ENE 11.5 mph - N/A   Scattered Clouds
3:53 AM 66.2 °F 55.4 °F 68% 30.06 in 10.0 mi ENE 10.4 mph - N/A   Mostly Cloudy
4:14 AM 64.4 °F 51.8 °F 64% 30.06 in 10.0 mi East 12.7 mph - N/A   Scattered Clouds
4:34 AM 64.4 °F 51.8 °F 64% 30.05 in 10.0 mi ENE 13.8 mph 19.6 mph N/A   Scattered Clouds
4:53 AM 64.4 °F 51.8 °F 64% 30.05 in 10.0 mi East 13.8 mph 18.4 mph N/A   Overcast
5:14 AM 64.4 °F 51.8 °F 64% 30.04 in 10.0 mi East 10.4 mph 17.3 mph N/A   Overcast
5:34 AM 64.4 °F 51.8 °F 64% 30.04 in 10.0 mi East 10.4 mph 17.3 mph N/A   Overcast
5:53 AM 64.4 °F 51.8 °F 64% 30.04 in 10.0 mi East 9.2 mph - N/A   Overcast
6:14 AM 64.4 °F 53.6 °F 68% 30.05 in 10.0 mi East 10.4 mph - N/A   Overcast
6:34 AM 64.4 °F 53.6 °F 68% 30.05 in 10.0 mi ENE 10.4 mph - N/A   Overcast
6:50 AM 64.4 °F 53.6 °F 68% 30.05 in 10.0 mi East 10.4 mph - N/A   Overcast
6:53 AM 64.4 °F 53.6 °F 68% 30.05 in 10.0 mi East 9.2 mph - N/A   Overcast
7:50 AM 64.4 °F 55.4 °F 73% 30.06 in 10.0 mi East 11.5 mph - N/A   Overcast
8:50 AM 66.2 °F 57.2 °F 73% 30.07 in 10.0 mi East 6.9 mph - N/A   Overcast
9:45 AM 66.2 °F 57.2 °F 73% 30.06 in 10.0 mi East 6.9 mph - N/A   Overcast
10:50 AM 69.8 °F 59.0 °F 68% 30.06 in 10.0 mi ESE 9.2 mph - N/A   Overcast
12:55 PM 71.6 °F 59.0 °F 64% 30.03 in 10.0 mi East 8.1 mph - N/A   Overcast
1:50 PM 71.6 °F 59.0 °F 64% 30.02 in 10.0 mi East 6.9 mph - N/A Rain Light Rain
2:45 PM 73.4 °F 60.8 °F 65% 29.97 in 10.0 mi East 6.9 mph - N/A   Overcast
3:45 PM 75.2 °F 60.8 °F 61% 29.95 in 10.0 mi East 6.9 mph - N/A   Overcast
4:45 PM 73.4 °F 60.8 °F 65% 29.95 in 10.0 mi NE 6.9 mph - N/A   Overcast
5:45 PM 69.8 °F 59.0 °F 68% 29.94 in 10.0 mi NE 6.9 mph - N/A   Overcast
6:45 PM 69.8 °F 60.8 °F 73% 29.93 in 10.0 mi ENE 6.9 mph - N/A   Overcast
7:45 PM 69.8 °F 59.0 °F 68% 29.93 in 10.0 mi NE 6.9 mph - N/A   Overcast
8:45 PM 68.0 °F 59.0 °F 73% 29.93 in 10.0 mi NE 6.9 mph - N/A   Overcast
9:13 PM 68.0 °F 59.0 °F 73% 29.92 in 10.0 mi Calm Calm - N/A   Overcast
9:34 PM 69.8 °F 60.8 °F 73% 29.92 in 10.0 mi Calm Calm - N/A   Overcast
9:54 PM 69.8 °F 60.8 °F 73% 29.91 in 10.0 mi East 3.5 mph - N/A   Overcast
10:13 PM 69.8 °F 60.8 °F 73% 29.91 in 10.0 mi ENE 3.5 mph - N/A   Overcast
10:34 PM 71.6 °F 62.6 °F 73% 29.90 in 10.0 mi ESE 6.9 mph - N/A   Overcast
10:54 PM 73.4 °F 64.4 °F 73% 29.90 in 10.0 mi SSE 13.8 mph - N/A   Overcast
11:14 PM 73.4 °F 66.2 °F 78% 29.90 in 10.0 mi SSE 9.2 mph - N/A   Overcast
11:34 PM 71.6 °F 66.2 °F 83% 29.90 in 10.0 mi SSE 10.4 mph - N/A   Overcast
11:54 PM 71.6 °F 66.2 °F 83% 29.89 in 10.0 mi SSE 11.5 mph 17.3 mph N/A   Overcast